Regional Weather Roundup
Issued by NWS Grand Forks, ND

Home | Current Version | Previous Version | Graphics & Text | Print | Product List | Glossary On
Versions: 1 2 3 4 5 6 7 8 9 10 11 12 13 14 15 16 17 18 19 20 21 22 23 24 25 26 27 28 29 30 31 32 33 34 35 36 37 38 39 40 41 42 43 44 45 46 47 48 49 50
000
ASUS43 KFGF 040731
RWRFGF
PRAIRIE TO PINES  WEATHER ROUNDUP
NATIONAL WEATHER SERVICE EASTERN NORTH DAKOTA/GRAND FORKS ND
100 AM CST SUN DEC 04 2016

 **SATELLITE DATA USED TO AUGMENT SKY COVER AT AUTOMATED STATIONS**
 *****  WEATHER ACROSS EASTERN NORTH DAKOTA  *****

CITY           SKY/WX    TMP DP  RH WIND       PRES   REMARKS
GRAND FORKS    LGT RAIN  34  31  88 S14       29.85F FOG     WCI  25
GRAND FRKS AFB CLOUDY    32  32 100 S14       29.82F WCI  22
GRAND FRKS NWS   N/A     32 N/A N/A S12         N/A  WCI  23
DEVILS LAKE    LGT SNOW  32  30  93 S12       29.74F FOG     WCI  23
FARGO          CLOUDY    35  32  88 S17G25    29.88F WCI  25
WAHPETON ARPT  CLOUDY    32  32 100 SE14      29.91F WCI  22
$$

 ***** WEATHER ACROSS CENTRAL AND WESTERN NORTH DAKOTA  *****

CITY           SKY/WX    TMP DP  RH WIND       PRES   REMARKS
BISMARCK       CLOUDY    30  27  88 W3        29.78F
MINOT          CLOUDY    33  31  92 SW8       29.71R
JAMESTOWN      LGT SNOW  32  30  92 S10       29.77F FOG     WCI  24
MINOT AFB      CLOUDY    32  30  93 NW13      29.70S WCI  22
GARRISON         N/A     34  32  92 W10       29.73S
WILLISTON      LGT SNOW  33  29  85 W14       29.77S FOG     WCI  23
DICKINSON      PTCLDY    28  24  85 W15       29.77S WCI  16
HETTINGER      CLEAR     25  20  81 NW10      29.83S WCI  15
$$

 *****  OTHER AIRPORT OBSERVATIONS IN OUR AREA  *****

CITY           SKY/WX    TMP DP  RH WIND       PRES   REMARKS
WALHALLA         N/A     32  32 100 SE13      29.80F FOG     WCI  22
GRAFTON AIRPOR CLOUDY    32  32 100 SE14G20   29.85F FOG     WCI  22
VALLEY CITY AR CLOUDY    32  32 100 S13       29.82F WCI  22
CANDO          MIX PCPN  32  32 100 S12       29.75F WCI  23
CAVALIER APRT    N/A     32  32 100 SE13      29.81F FOG     WCI  22
GWINNER        PTSUNNY   36  34  93 S12       29.85F
SHEYENNE NWR     N/A     34  32  91 S10       29.95S
ROLLA          MIX PCPN  28  28 100 S13       29.70F WCI  18
 ***** THE ABOVE OBSERVATIONS ARE NON NWS ARE NOT QUALITY
       CONTROLLED AND MAY MIS-REPORT RAIN FOR SNOW...
$$

  *****  WEATHER ACROSS NORTHERN MINNESOTA  *****

CITY           SKY/WX    TMP DP  RH WIND       PRES   REMARKS
FLAG ISLAND    LGT SNOW  27  25  93 SE16      29.94F WCI  14
WARROAD        CLOUDY    27  23  86 SE10      29.93F WCI  17
ROSEAU         CLOUDY    28  25  86 SE8       29.91F WCI  20
HALLOCK        CLOUDY    32  30  93 SE14      29.85F WCI  22
THF RVR FALLS  CLOUDY    31  28  89 S15       29.90F WCI  20
BAUDETTE       LGT SNOW  25  21  85 SE12      29.96F FOG     WCI  14
WASKISH        FLURRIES  28  27  93 SE6       29.96F WCI  22
CROOKSTON      CLOUDY    34  30  86 S15G23    29.87F WCI  24
STEPHEN NDAWN    N/A     32  30  93 S12         N/A  WCI  23
GREENBUSH NDAW   N/A     28  27  93 SE10        N/A  WCI  19
$$
  *****  WEATHER ACROSS CENTRAL AND WEST MINNESOTA  *****

CITY           SKY/WX    TMP DP  RH WIND       PRES   REMARKS
FOSSTON        CLOUDY    28  27  93 SE10G18   29.90F WCI  19
BEMIDJI        CLOUDY    28  26  93 SE8       29.95F WCI  19
PARK RAPIDS    LGT SNOW  29  25  85 SE12      29.96F FOG     WCI  19
ELBOW LAKE     CLOUDY    32  32  99 S15       29.94F FOG     WCI  22
WADENA         MIX PCPN  28  28 100 SE9       29.95F WCI  20
DETROIT LAKES  CLOUDY    32  32 100 S13       29.92F FOG     WCI  22
MOORHEAD       CLOUDY    34  30  86 S20G25    29.89F FOG     WCI  22
FERGUS FALLS   CLOUDY    34  34 100 S15       29.96F FOG     WCI  24
MORRIS MN      CLOUDY    34  32  93 S15       29.94F FOG     WCI  24
STAPLES        CLOUDY    28  27  93 SE8       29.97F WCI  20
$$
  *****  WEATHER ELSEWHERE ACROSS MINNESOTA  *****

CITY           SKY/WX    TMP DP  RH WIND       PRES   REMARKS
DULUTH         FLURRIES  28  21  75 SE9       30.07F WCI  19
INTRNTL FALLS  LGT SNOW  24  20  84 SE8       30.01F FOG     WCI  15
ELY            CLOUDY    25  21  86 SE3       30.07F
CLOQUET        LGT SNOW  28  21  74 SE6       30.07F WCI  22
WHEATON        NOT AVBL
BRAINERD       LGT SNOW  28  26  92 SE8       30.01F FOG     WCI  20
HIBBING        LGT SNOW  25  21  85 SE7       30.05F FOG     WCI  17
ALEXANDRIA     CLOUDY    33  32  96 S15       29.97F WCI  23
SAINT CLOUD    LGT SNOW  30  29  96 SE10      30.03F FOG     WCI  21
MINNEAPOLIS    LGT SNOW  31  28  89 SE10      30.09F FOG     WCI  22
$$

  *****  WEATHER ACROSS SOUTH DAKOTA  *****

CITY           SKY/WX    TMP DP  RH WIND       PRES   REMARKS
SIOUX FALLS    CLOUDY    34  33  96 S13       29.97F FOG     WCI  25
BROOKINGS      CLOUDY    32  31  96 S15       29.93F FOG     WCI  22
WATERTOWN      CLOUDY    32  32 100 S14G24    29.89F FOG     WCI  22
HURON          MOCLDY    31  31 100 S9        29.90F WCI  23
SISSETON         N/A     35  32  88 S14       29.89F
ABERDEEN       CLOUDY    31  29  92 S9        29.86F WCI  23
MITCHELL       PTCLDY    33  31  92 S9        29.93F
PIERRE         MOCLDY    32  24  72 W12       29.87F WCI  23
MOBRIDGE       LGT RAIN  35  31  85 NW12      29.79F
RAPID CITY     CLEAR     31  22  69 W10       29.92S WCI  22
$$

  *****  SOME WEATHER IN NEARBY STATES *****

CITY           SKY/WX    TMP DP  RH WIND       PRES   REMARKS
GLASGOW MT     CLEAR     26  23  88 W9        29.83S WCI  17
GREAT FALLS MT CLOUDY    34  21  59 SW23      29.87F WCI  22
CHEYENNE WY    CLEAR     22   9  57 W8        30.01R WCI  12
SCOTTSBLUFF NE PTCLDY    20  12  71 NW7       30.02R WCI  11
OMAHA NE       LGT RAIN  34  30  85 S6        30.03F FOG
DES MOINES IA  LGT SNOW  36  34  92 SE8       30.09F FOG
DAVENPORT IA   CLOUDY    34  27  75 SE10      30.20F
CHICAGO IL     CLOUDY    32  25  75 CALM      30.24F
EAU CLAIRE WI  CLOUDY    30  23  75 SE7       30.15F WCI  23
LA CROSSE WI   LGT SNOW  33  29  85 SE7       30.17F FOG
$$

  *****  SOME NATIONAL WEATHER *****

CITY           SKY/WX    TMP DP  RH WIND       PRES   REMARKS
LA GUARDIA NY  MOCLDY    44  27  51 NW14      30.19R
RALEIGH NC     CLOUDY    43  32  65 N3        30.25F
ATLANTA GA     CLOUDY    47  44  90 E12       30.15F
NEW ORLEANS LA CLOUDY    62  62 100 E14       29.90F
OKLAHOMA CITY  CLOUDY    44  43  96 CALM      29.99F
ALBUQUERQUE NM CLOUDY    34  17  50 N10       30.10F
SALT LAKE CITY PTCLDY    31  20  63 SE9       30.27S WCI  23
LOS ANGELES CA CLEAR     54  32  43 NE6       30.07R
BOISE ID       PTCLDY    35  28  75 SE10      30.15F
SEATTLE WA     CLOUDY    45  44  97 SW18      30.06F
$$

*** WEATHER ACROSS MANITOBA...SASKATCHEWAN AND ONTARIO ***
                ***ONTARIO***

CITY           SKY/WX    TMP DP  RH WIND       PRES   REMARKS
GERALDTON      CLOUDY    21  19  93 E5        30.19F WCI  15
THUNDER BAY    CLOUDY    28  28 100 W3        30.15S
SIOUX LOOKOUT  CLOUDY    25  21  86 S7        30.05F WCI  17
TORONTO        MOCLDY    36  30  80 N7        30.25R
BIG TROUT LK   CLOUDY    21  18  86 S12G17    30.09F WCI   9
PICKLE LAKE    NOT AVBL
DRYDEN         CLOUDY    25  21  86 S9        30.03S WCI  15
KENORA         CLOUDY    25  19  80 SE10      29.97F WCI  15
$$
                *** MANITOBA***

CITY           SKY/WX    TMP DP  RH WIND       PRES   REMARKS
BRANDON        LGT SNOW  30  28  93 S3        29.71F
DAUPHIN        LGT SNOW  28  28 100 SE7       29.72F WCI  21
ISLAND LAKE    NOT AVBL
PILOT MOUND      N/A     30  30 100 S16         N/A  WCI  19
THE PAS        FLURRIES  28  27  93 S6        29.71S WCI  22
THOMPSON       LGT SNOW  18  16  93 E5        29.85S WCI  11
WINNIPEG       FLURRIES  28  25  86 SE16      29.86F WCI  17
LYNN LAKE      CLOUDY    21  21 100 SE9       29.72F WCI  11
CHURCHILL      FLURRIES  14  12  92 S14       30.01F WCI  -1
GILLAM         FLURRIES   7   3  85 SE3       29.98F
$$
                ***SASKATCHEWAN***

CITY           SKY/WX    TMP DP  RH WIND       PRES   REMARKS
ESTEVAN        NOT AVBL
KINDERSLEY     CLEAR     12  10  92 S5        29.71F WCI   4
LLOYDMINSTER   MOCLDY    21  18  86 W12       29.66F WCI   9
PRINCE ALBERT  FLURRIES  27  25  93 W10       29.69S WCI  17
REGINA         CLOUDY    25  23  93 NW8       29.74S WCI  16
YORKTON        CLOUDY    28  27  93 W3        29.67F FOG
N. BATTLEFORD  FOG       12  12 100 SE6       29.70F VSB 3/8 WCI   3
LA RONGE       CLOUDY    27  25  93 SW3       29.64F
SASKATOON      FOG       21  21 100 SW6       29.73S VSB 1/4 WCI  14
SWIFT CURRENT  CLEAR     19  19 100 SW10      29.73F WCI   8
$$
NOTE: THESE ARE AUTOMATED STATIONS WITH LIMITED QUALITY CONTROL
      "FAIR" INDICATES FEW OR NO CLOUDS BELOW 12,000 FEET WITH NO
      SIGNIFICANT WEATHER AND/OR OBSTRUCTIONS TO VISIBILITY.
      SKY/WX - SKY CONDITION AND SIGNIFICANT WEATHER.
      TMP - AIR TEMPERATURE.    DP   - DEWPOINT TEMPERATURE.
      RH  - RELATIVE HUMIDITY.  PRES - PRESSURE.
      HX  - HEAT INDEX.         WCI  - WIND CHILL INDEX.
$




USA.gov is the U.S. government's official web portal to all federal, state and local government web resources and services.